,,,PA_Meas_PMT16A,,PR_Meas_QMR101_102,,RH_Meas_QMH101,,SR_Meas_QMS101,,TA_Meas_QMH101,,GenWind,,GenWind,
date,time,status,PA,status,PR,status,RH,status,SR,status,TA,status,DirAvg,status,SpdAvg,
2011-10-23, 00:00:04,VALID,1009.254,VALID,0.0,VALID,104.0,VALID,0.0,VALID,23.382,VALID,288.0,VALID,0.369,
2011-10-23, 00:01:04,VALID,1009.261,VALID,0.0,VALID,104.0,VALID,0.0,VALID,23.361,VALID,288.0,VALID,0.445,
2011-10-23, 00:02:04,VALID,1009.295,VALID,0.0,VALID,104.0,VALID,0.0,VALID,23.361,VALID,288.0,VALID,0.425,
2011-10-23, 00:03:04,VALID,1009.29,VALID,0.0,VALID,104.0,VALID,0.0,VALID,23.382,VALID,300.0,VALID,0.513,
2011-10-23, 00:04:04,VALID,1009.338,VALID,0.0,VALID,104.0,VALID,0.0,VALID,23.382,VALID,300.0,VALID,0.203,
2011-10-23, 00:05:04,VALID,1009.313,VALID,0.0,VALID,104.0,VALID,0.0,VALID,23.382,VALID,300.0,VALID,0.0,
2011-10-23, 00:06:04,VALID,1009.332,VALID,0.0,VALID,104.0,VALID,0.0,VALID,23.361,VALID,300.0,VALID,0.262,
2011-10-23, 00:07:04,VALID,1009.356,VALID,0.0,VALID,104.0,VALID,0.0,VALID,23.382,VALID,299.0,VALID,0.262,
2011-10-23, 00:08:04,VALID,1009.357,VALID,0.0,VALID,104.0,VALID,0.0,VALID,23.363,VALID,300.0,VALID,0.303,
2011-10-23, 00:09:04,VALID,1009.342,VALID,0.0,VALID,104.0,VALID,0.0,VALID,23.363,VALID,301.0,VALID,0.143,
2011-10-23, 00:10:04,VALID,1009.329,VALID,0.0,VALID,104.0,VALID,0.0,VALID,23.363,VALID,300.0,VALID,0.0,
2011-10-23, 00:11:04,VALID,1009.333,VALID,0.0,VALID,104.0,VALID,0.0,VALID,23.343,VALID,300.0,VALID,0.253,
2011-10-23, 00:12:04,VALID,1009.331,VALID,0.0,VALID,104.0,VALID,0.0,VALID,23.343,VALID,300.0,VALID,0.135,
2011-10-23, 00:13:04,VALID,1009.331,VALID,0.0,VALID,104.0,VALID,0.0,VALID,23.363,VALID,300.0,VALID,0.191,
2011-10-23, 00:14:04,VALID,1009.309,VALID,0.0,VALID,104.0,VALID,0.0,VALID,23.363,VALID,300.0,VALID,0.001,
2011-10-23, 00:15:04,VALID,1009.369,VALID,0.0,VALID,104.0,VALID,0.0,VALID,23.363,VALID,300.0,VALID,0.146,
2011-10-23, 00:16:04,VALID,1009.341,VALID,0.0,VALID,104.0,VALID,0.0,VALID,23.363,VALID,300.0,VALID,0.191,
2011-10-23, 00:17:04,VALID,1009.379,VALID,0.0,VALID,104.0,VALID,0.0,VALID,23.363,VALID,300.0,VALID,0.271,
2011-10-23, 00:18:04,VALID,1009.415,VALID,0.0,VALID,104.0,VALID,0.0,VALID,23.363,VALID,299.0,VALID,0.202,
2011-10-23, 00:19:04,VALID,1009.427,VALID,0.0,VALID,104.0,VALID,0.0,VALID,23.363,VALID,300.0,VALID,0.226,
2011-10-23, 00:20:04,VALID,1009.453,VALID,0.0,VALID,104.0,VALID,0.0,VALID,23.342,VALID,300.0,VALID,0.269,
2011-10-23, 00:21:04,VALID,1009.463,VALID,0.0,VALID,104.0,VALID,0.112,VALID,23.361,VALID,300.0,VALID,0.291,
2011-10-23, 00:22:04,VALID,1009.472,VALID,0.0,VALID,104.0,VALID,0.112,VALID,23.342,VALID,300.0,VALID,0.323,
2011-10-23, 00:23:04,VALID,1009.488,VALID,0.0,VALID,104.0,VALID,0.112,VALID,23.361,VALID,300.0,VALID,0.393,
2011-10-23, 00:24:04,VALID,1009.494,VALID,0.0,VALID,104.0,VALID,0.112,VALID,23.361,VALID,300.0,VALID,0.316,
2011-10-23, 00:25:04,VALID,1009.514,VALID,0.0,VALID,104.0,VALID,0.112,VALID,23.34,VALID,300.0,VALID,0.209,
2011-10-23, 00:26:04,VALID,1009.483,VALID,0.0,VALID,104.0,VALID,0.112,VALID,23.34,VALID,300.0,VALID,0.049,
2011-10-23, 00:27:04,VALID,1009.476,VALID,0.0,VALID,104.0,VALID,0.112,VALID,23.361,VALID,300.0,VALID,0.0,
2011-10-23, 00:28:04,VALID,1009.44,VALID,0.0,VALID,104.0,VALID,0.224,VALID,23.34,VALID,300.0,VALID,0.0,
2011-10-23, 00:29:04,VALID,1009.409,VALID,0.0,VALID,104.0,VALID,0.112,VALID,23.361,VALID,300.0,VALID,0.0,
2011-10-23, 00:30:04,VALID,1009.408,VALID,0.0,VALID,104.0,VALID,0.112,VALID,23.359,VALID,300.0,VALID,0.0,
2011-10-23, 00:31:04,VALID,1009.442,VALID,0.0,VALID,104.0,VALID,0.112,VALID,23.379,VALID,300.0,VALID,0.0,
2011-10-23, 00:32:04,VALID,1009.421,VALID,0.0,VALID,104.0,VALID,0.112,VALID,23.4,VALID,300.0,VALID,0.243,
2011-10-23, 00:33:04,VALID,1009.45,VALID,0.0,VALID,104.0,VALID,0.112,VALID,23.359,VALID,300.0,VALID,0.162,
2011-10-23, 00:34:04,VALID,1009.463,VALID,0.0,VALID,104.0,VALID,0.112,VALID,23.361,VALID,300.0,VALID,0.228,
2011-10-23, 00:35:04,VALID,1009.458,VALID,0.0,VALID,104.0,VALID,0.112,VALID,23.38,VALID,300.0,VALID,0.022,
2011-10-23, 00:36:04,VALID,1009.461,VALID,0.0,VALID,104.0,VALID,0.0,VALID,23.382,VALID,300.0,VALID,0.031,
2011-10-23, 00:37:04,VALID,1009.445,VALID,0.0,VALID,104.0,VALID,0.0,VALID,23.382,VALID,300.0,VALID,0.0,
2011-10-23, 00:38:04,VALID,1009.43,VALID,0.0,VALID,104.0,VALID,0.0,VALID,23.382,VALID,300.0,VALID,0.0,
2011-10-23, 00:39:04,VALID,1009.418,VALID,0.0,VALID,104.0,VALID,0.0,VALID,23.402,VALID,300.0,VALID,0.0,
2011-10-23, 00:40:04,VALID,1009.461,VALID,0.0,VALID,104.0,VALID,0.112,VALID,23.4,VALID,300.0,VALID,0.0,
2011-10-23, 00:41:04,VALID,1009.443,VALID,0.0,VALID,104.0,VALID,0.0,VALID,23.421,VALID,299.0,VALID,0.0,
2011-10-23, 00:42:04,VALID,1009.489,VALID,0.0,VALID,104.0,VALID,0.0,VALID,23.402,VALID,299.0,VALID,0.0,
2011-10-23, 00:43:04,VALID,1009.482,VALID,0.0,VALID,104.0,VALID,0.0,VALID,23.402,VALID,301.0,VALID,0.0,
2011-10-23, 00:44:04,VALID,1009.517,VALID,0.0,VALID,104.0,VALID,0.0,VALID,23.38,VALID,300.0,VALID,0.0,
2011-10-23, 00:45:04,VALID,1009.518,VALID,0.0,VALID,104.0,VALID,0.0,VALID,23.402,VALID,300.0,VALID,0.0,
2011-10-23, 00:46:04,VALID,1009.538,VALID,0.0,VALID,104.0,VALID,0.0,VALID,23.421,VALID,300.0,VALID,0.0,
2011-10-23, 00:47:04,VALID,1009.527,VALID,0.0,VALID,104.0,VALID,0.0,VALID,23.421,VALID,300.0,VALID,0.255,
2011-10-23, 00:48:04,VALID,1009.543,VALID,0.0,VALID,104.0,VALID,0.0,VALID,23.421,VALID,299.0,VALID,0.0,
2011-10-23, 00:49:04,VALID,1009.537,VALID,0.0,VALID,104.0,VALID,0.0,VALID,23.441,VALID,300.0,VALID,0.087,
2011-10-23, 00:50:04,VALID,1009.55,VALID,0.0,VALID,104.0,VALID,0.0,VALID,23.421,VALID,300.0,VALID,0.125,
2011-10-23, 00:51:04,VALID,1009.54,VALID,0.0,VALID,104.0,VALID,0.0,VALID,23.419,VALID,300.0,VALID,0.289,
2011-10-23, 00:52:04,VALID,1009.538,VALID,0.0,VALID,104.0,VALID,0.0,VALID,23.421,VALID,300.0,VALID,0.006,
2011-10-23, 00:53:04,VALID,1009.54,VALID,0.0,VALID,104.0,VALID,0.0,VALID,23.441,VALID,300.0,VALID,0.0,
2011-10-23, 00:54:04,VALID,1009.585,VALID,0.0,VALID,104.0,VALID,0.0,VALID,23.441,VALID,300.0,VALID,0.104,
2011-10-23, 00:55:04,VALID,1009.585,VALID,0.0,VALID,104.0,VALID,0.112,VALID,23.46,VALID,300.0,VALID,0.0,
2011-10-23, 00:56:04,VALID,1009.591,VALID,0.0,VALID,104.0,VALID,0.0,VALID,23.46,VALID,300.0,VALID,0.0,
2011-10-23, 00:57:04,VALID,1009.562,VALID,0.0,VALID,104.0,VALID,0.0,VALID,23.439,VALID,300.0,VALID,0.0,
2011-10-23, 00:58:04,VALID,1009.579,VALID,0.0,VALID,104.0,VALID,0.0,VALID,23.46,VALID,300.0,VALID,0.0,
2011-10-23, 00:59:04,VALID,1009.56,VALID,0.0,VALID,104.0,VALID,0.0,VALID,23.46,VALID,300.0,VALID,0.0,
2011-10-23, 01:00:04,VALID,1009.579,VALID,0.0,VALID,104.0,VALID,0.0,VALID,23.458,VALID,300.0,VALID,0.0,
2011-10-23, 01:01:04,VALID,1009.547,VALID,0.0,VALID,104.0,VALID,0.0,VALID,23.48,VALID,300.0,VALID,0.0,
2011-10-23, 01:02:04,VALID,1009.55,VALID,0.0,VALID,104.0,VALID,0.0,VALID,23.439,VALID,300.0,VALID,0.0,
2011-10-23, 01:03:04,VALID,1009.563,VALID,0.0,VALID,104.0,VALID,0.0,VALID,23.46,VALID,300.0,VALID,0.0,
2011-10-23, 01:04:04,VALID,1009.523,VALID,0.0,VALID,104.0,VALID,0.0,VALID,23.46,VALID,300.0,VALID,0.0,
2011-10-23, 01:05:04,VALID,1009.542,VALID,0.0,VALID,104.0,VALID,0.0,VALID,23.48,VALID,300.0,VALID,0.0,
2011-10-23, 01:06:04,VALID,1009.524,VALID,0.0,VALID,104.0,VALID,0.0,VALID,23.478,VALID,300.0,VALID,0.0,
2011-10-23, 01:07:04,VALID,1009.505,VALID,0.0,VALID,104.0,VALID,0.0,VALID,23.519,VALID,300.0,VALID,0.0,
2011-10-23, 01:08:04,VALID,1009.536,VALID,0.0,VALID,104.0,VALID,0.0,VALID,23.519,VALID,300.0,VALID,0.0,
2011-10-23, 01:09:04,VALID,1009.496,VALID,0.0,VALID,104.0,VALID,0.0,VALID,23.519,VALID,300.0,VALID,0.0,
2011-10-23, 01:10:04,VALID,1009.525,VALID,0.0,VALID,104.0,VALID,0.0,VALID,23.519,VALID,300.0,VALID,0.0,
2011-10-23, 01:11:04,VALID,1009.497,VALID,0.0,VALID,104.0,VALID,0.0,VALID,23.519,VALID,300.0,VALID,0.0,
2011-10-23, 01:12:04,VALID,1009.478,VALID,0.0,VALID,104.0,VALID,0.0,VALID,23.538,VALID,300.0,VALID,0.0,
2011-10-23, 01:13:04,VALID,1009.491,VALID,0.0,VALID,104.0,VALID,0.0,VALID,23.536,VALID,300.0,VALID,0.0,
2011-10-23, 01:14:04,VALID,1009.481,VALID,0.0,VALID,104.0,VALID,0.0,VALID,23.558,VALID,300.0,VALID,0.0,
2011-10-23, 01:15:04,VALID,1009.439,VALID,0.0,VALID,104.0,VALID,0.0,VALID,23.558,VALID,300.0,VALID,0.0,
2011-10-23, 01:16:04,VALID,1009.443,VALID,0.0,VALID,104.0,VALID,0.0,VALID,23.536,VALID,300.0,VALID,0.0,
2011-10-23, 01:17:04,VALID,1009.422,VALID,0.0,VALID,104.0,VALID,0.0,VALID,23.577,VALID,300.0,VALID,0.0,
2011-10-23, 01:18:04,VALID,1009.374,VALID,0.0,VALID,104.0,VALID,0.0,VALID,23.597,VALID,300.0,VALID,0.0,
2011-10-23, 01:19:04,VALID,1009.376,VALID,0.0,VALID,104.0,VALID,0.0,VALID,23.597,VALID,300.0,VALID,0.166,
2011-10-23, 01:20:04,VALID,1009.348,VALID,0.0,VALID,104.0,VALID,0.0,VALID,23.556,VALID,300.0,VALID,0.196,
2011-10-23, 01:21:04,VALID,1009.343,VALID,0.0,VALID,104.0,VALID,0.112,VALID,23.577,VALID,300.0,VALID,0.163,
2011-10-23, 01:22:04,VALID,1009.317,VALID,0.0,VALID,104.0,VALID,0.0,VALID,23.536,VALID,300.0,VALID,0.133,
2011-10-23, 01:23:04,VALID,1009.315,VALID,0.0,VALID,104.0,VALID,0.0,VALID,23.538,VALID,300.0,VALID,0.237,
2011-10-23, 01:24:04,VALID,1009.335,VALID,0.0,VALID,104.0,VALID,0.0,VALID,23.519,VALID,300.0,VALID,0.186,
2011-10-23, 01:25:04,VALID,1009.362,VALID,0.0,VALID,104.0,VALID,0.0,VALID,23.519,VALID,300.0,VALID,0.193,
2011-10-23, 01:26:04,VALID,1009.341,VALID,0.0,VALID,104.0,VALID,0.0,VALID,23.519,VALID,300.0,VALID,0.022,
2011-10-23, 01:27:04,VALID,1009.327,VALID,0.0,VALID,104.0,VALID,0.112,VALID,23.517,VALID,300.0,VALID,0.0,
2011-10-23, 01:28:04,VALID,1009.324,VALID,0.0,VALID,104.0,VALID,0.0,VALID,23.538,VALID,300.0,VALID,0.0,
2011-10-23, 01:29:04,VALID,1009.318,VALID,0.0,VALID,104.0,VALID,0.0,VALID,23.538,VALID,300.0,VALID,0.0,
2011-10-23, 01:30:04,VALID,1009.324,VALID,0.0,VALID,104.0,VALID,0.0,VALID,23.538,VALID,300.0,VALID,0.0,
2011-10-23, 01:31:04,VALID,1009.332,VALID,0.0,VALID,104.0,VALID,0.0,VALID,23.538,VALID,300.0,VALID,0.0,
2011-10-23, 01:32:04,VALID,1009.32,VALID,0.0,VALID,104.0,VALID,0.0,VALID,23.538,VALID,300.0,VALID,0.0,
2011-10-23, 01:33:04,VALID,1009.334,VALID,0.0,VALID,104.0,VALID,0.0,VALID,23.497,VALID,300.0,VALID,0.0,
2011-10-23, 01:34:04,VALID,1009.388,VALID,0.0,VALID,104.0,VALID,0.0,VALID,23.478,VALID,300.0,VALID,0.219,
2011-10-23, 01:35:04,VALID,1009.378,VALID,0.0,VALID,104.0,VALID,0.0,VALID,23.48,VALID,300.0,VALID,0.141,
2011-10-23, 01:36:04,VALID,1009.391,VALID,0.0,VALID,104.0,VALID,0.0,VALID,23.48,VALID,300.0,VALID,0.036,
2011-10-23, 01:37:04,VALID,1009.398,VALID,0.0,VALID,104.0,VALID,0.0,VALID,23.48,VALID,300.0,VALID,0.0,
2011-10-23, 01:38:04,VALID,1009.363,VALID,0.0,VALID,104.0,VALID,0.0,VALID,23.48,VALID,300.0,VALID,0.0,
2011-10-23, 01:39:04,VALID,1009.382,VALID,0.0,VALID,104.0,VALID,0.0,VALID,23.48,VALID,300.0,VALID,0.0,
2011-10-23, 01:40:04,VALID,1009.36,VALID,0.0,VALID,104.0,VALID,0.0,VALID,23.499,VALID,300.0,VALID,0.0,
2011-10-23, 01:41:04,VALID,1009.365,VALID,0.0,VALID,104.0,VALID,0.0,VALID,23.538,VALID,300.0,VALID,0.0,
2011-10-23, 01:42:04,VALID,1009.379,VALID,0.0,VALID,104.0,VALID,0.0,VALID,23.538,VALID,300.0,VALID,0.175,
2011-10-23, 01:43:04,VALID,1009.364,VALID,0.0,VALID,104.0,VALID,0.0,VALID,23.538,VALID,300.0,VALID,0.37,
2011-10-23, 01:44:04,VALID,1009.375,VALID,0.0,VALID,104.0,VALID,0.0,VALID,23.519,VALID,300.0,VALID,0.421,
2011-10-23, 01:45:04,VALID,1009.372,VALID,0.0,VALID,104.0,VALID,0.0,VALID,23.48,VALID,300.0,VALID,0.326,
2011-10-23, 01:46:04,VALID,1009.39,VALID,0.0,VALID,104.0,VALID,0.0,VALID,23.48,VALID,300.0,VALID,0.248,
2011-10-23, 01:47:04,VALID,1009.402,VALID,0.0,VALID,104.0,VALID,0.0,VALID,23.441,VALID,300.0,VALID,0.319,
2011-10-23, 01:48:04,VALID,1009.407,VALID,0.0,VALID,104.0,VALID,0.0,VALID,23.421,VALID,300.0,VALID,0.13,
2011-10-23, 01:49:04,VALID,1009.42,VALID,0.0,VALID,104.0,VALID,0.0,VALID,23.421,VALID,300.0,VALID,0.0,
2011-10-23, 01:50:04,VALID,1009.423,VALID,0.0,VALID,104.0,VALID,0.0,VALID,23.402,VALID,300.0,VALID,0.0,
2011-10-23, 01:51:04,VALID,1009.411,VALID,0.0,VALID,104.0,VALID,0.0,VALID,23.402,VALID,300.0,VALID,0.0,
2011-10-23, 01:52:04,VALID,1009.392,VALID,0.0,VALID,104.0,VALID,0.0,VALID,23.402,VALID,300.0,VALID,0.0,
2011-10-23, 01:53:04,VALID,1009.392,VALID,0.0,VALID,104.0,VALID,0.0,VALID,23.402,VALID,300.0,VALID,0.0,
2011-10-23, 01:54:04,VALID,1009.362,VALID,0.0,VALID,104.0,VALID,0.0,VALID,23.402,VALID,300.0,VALID,0.185,
2011-10-23, 01:55:04,VALID,1009.367,VALID,0.0,VALID,104.0,VALID,0.0,VALID,23.421,VALID,300.0,VALID,0.079,
2011-10-23, 01:56:04,VALID,1009.337,VALID,0.0,VALID,104.0,VALID,0.0,VALID,23.421,VALID,300.0,VALID,0.0,
2011-10-23, 01:57:04,VALID,1009.327,VALID,0.0,VALID,104.0,VALID,0.0,VALID,23.421,VALID,300.0,VALID,0.011,
2011-10-23, 01:58:04,VALID,1009.291,VALID,0.0,VALID,104.0,VALID,0.0,VALID,23.441,VALID,300.0,VALID,0.169,
2011-10-23, 01:59:04,VALID,1009.302,VALID,0.0,VALID,104.0,VALID,0.0,VALID,23.46,VALID,300.0,VALID,0.017,
2011-10-23, 02:00:04,VALID,1009.265,VALID,0.0,VALID,104.0,VALID,0.0,VALID,23.501,VALID,300.0,VALID,0.233,
2011-10-23, 02:01:04,VALID,1009.242,VALID,0.0,VALID,104.0,VALID,0.0,VALID,23.499,VALID,300.0,VALID,0.115,
2011-10-23, 02:02:04,VALID,1009.26,VALID,0.0,VALID,104.0,VALID,0.0,VALID,23.499,VALID,300.0,VALID,0.033,
2011-10-23, 02:03:04,VALID,1009.236,VALID,0.0,VALID,104.0,VALID,0.0,VALID,23.499,VALID,300.0,VALID,0.053,
2011-10-23, 02:04:04,VALID,1009.258,VALID,0.0,VALID,104.0,VALID,0.0,VALID,23.499,VALID,300.0,VALID,0.3,
2011-10-23, 02:05:04,VALID,1009.293,VALID,0.0,VALID,104.0,VALID,0.0,VALID,23.519,VALID,300.0,VALID,0.241,
2011-10-23, 02:06:04,VALID,1009.274,VALID,0.0,VALID,104.0,VALID,0.0,VALID,23.499,VALID,300.0,VALID,0.27,
2011-10-23, 02:07:04,VALID,1009.273,VALID,0.0,VALID,104.0,VALID,0.0,VALID,23.52,VALID,300.0,VALID,0.0,
2011-10-23, 02:08:04,VALID,1009.257,VALID,0.0,VALID,104.0,VALID,0.0,VALID,23.499,VALID,300.0,VALID,0.0,
2011-10-23, 02:09:04,VALID,1009.268,VALID,0.0,VALID,104.0,VALID,0.0,VALID,23.517,VALID,300.0,VALID,0.0,
2011-10-23, 02:10:04,VALID,1009.267,VALID,0.0,VALID,104.0,VALID,0.0,VALID,23.499,VALID,300.0,VALID,0.0,
2011-10-23, 02:11:04,VALID,1009.276,VALID,0.0,VALID,104.0,VALID,0.0,VALID,23.519,VALID,300.0,VALID,0.0,
2011-10-23, 02:12:04,VALID,1009.257,VALID,0.0,VALID,104.0,VALID,0.0,VALID,23.538,VALID,300.0,VALID,0.0,
2011-10-23, 02:13:04,VALID,1009.261,VALID,0.0,VALID,104.0,VALID,0.0,VALID,23.519,VALID,300.0,VALID,0.0,
2011-10-23, 02:14:04,VALID,1009.234,VALID,0.0,VALID,104.0,VALID,0.0,VALID,23.538,VALID,300.0,VALID,0.0,
2011-10-23, 02:15:04,VALID,1009.264,VALID,0.0,VALID,104.0,VALID,0.0,VALID,23.538,VALID,300.0,VALID,0.0,
2011-10-23, 02:16:04,VALID,1009.252,VALID,0.0,VALID,104.0,VALID,0.0,VALID,23.558,VALID,300.0,VALID,0.0,
2011-10-23, 02:17:04,VALID,1009.245,VALID,0.0,VALID,104.0,VALID,0.0,VALID,23.558,VALID,300.0,VALID,0.0,
2011-10-23, 02:18:04,VALID,1009.268,VALID,0.0,VALID,104.0,VALID,0.0,VALID,23.597,VALID,300.0,VALID,0.0,
2011-10-23, 02:19:04,VALID,1009.275,VALID,0.0,VALID,104.0,VALID,0.0,VALID,23.577,VALID,300.0,VALID,0.0,
2011-10-23, 02:20:04,VALID,1009.285,VALID,0.0,VALID,104.0,VALID,0.0,VALID,23.616,VALID,300.0,VALID,0.0,
2011-10-23, 02:21:04,VALID,1009.253,VALID,0.0,VALID,104.0,VALID,0.0,VALID,23.616,VALID,300.0,VALID,0.0,
2011-10-23, 02:22:04,VALID,1009.256,VALID,0.0,VALID,103.992,VALID,0.0,VALID,23.655,VALID,300.0,VALID,0.322,
2011-10-23, 02:23:04,VALID,1009.243,VALID,0.0,VALID,103.977,VALID,0.0,VALID,23.675,VALID,300.0,VALID,0.323,
2011-10-23, 02:24:04,VALID,1009.231,VALID,0.0,VALID,103.977,VALID,0.0,VALID,23.675,VALID,300.0,VALID,0.407,
2011-10-23, 02:25:04,VALID,1009.228,VALID,0.0,VALID,103.992,VALID,0.0,VALID,23.694,VALID,300.0,VALID,0.302,
2011-10-23, 02:26:04,VALID,1009.246,VALID,0.0,VALID,103.97,VALID,0.0,VALID,23.713,VALID,300.0,VALID,0.0,
2011-10-23, 02:27:04,VALID,1009.283,VALID,0.0,VALID,103.992,VALID,0.0,VALID,23.694,VALID,300.0,VALID,0.008,
2011-10-23, 02:28:04,VALID,1009.272,VALID,0.0,VALID,103.97,VALID,0.0,VALID,23.713,VALID,300.0,VALID,0.0,
2011-10-23, 02:29:04,VALID,1009.244,VALID,0.0,VALID,104.0,VALID,0.0,VALID,23.694,VALID,300.0,VALID,0.0,
2011-10-23, 02:30:04,VALID,1009.254,VALID,0.0,VALID,104.0,VALID,0.0,VALID,23.694,VALID,300.0,VALID,0.0,
2011-10-23, 02:31:04,VALID,1009.251,VALID,0.0,VALID,104.0,VALID,0.0,VALID,23.673,VALID,300.0,VALID,0.0,
2011-10-23, 02:32:04,VALID,1009.211,VALID,0.0,VALID,104.0,VALID,0.0,VALID,23.694,VALID,300.0,VALID,0.0,
2011-10-23, 02:33:04,VALID,1009.206,VALID,0.0,VALID,104.0,VALID,0.0,VALID,23.694,VALID,300.0,VALID,0.0,
2011-10-23, 02:34:04,VALID,1009.196,VALID,0.0,VALID,104.0,VALID,0.0,VALID,23.673,VALID,300.0,VALID,0.0,
2011-10-23, 02:35:04,VALID,1009.199,VALID,0.0,VALID,103.992,VALID,0.0,VALID,23.692,VALID,300.0,VALID,0.068,
2011-10-23, 02:36:04,VALID,1009.194,VALID,0.0,VALID,103.977,VALID,0.0,VALID,23.733,VALID,300.0,VALID,0.0,
2011-10-23, 02:37:04,VALID,1009.219,VALID,0.0,VALID,103.97,VALID,0.0,VALID,23.752,VALID,300.0,VALID,0.0,
2011-10-23, 02:38:04,VALID,1009.243,VALID,0.0,VALID,103.962,VALID,0.0,VALID,23.752,VALID,300.0,VALID,0.0,
2011-10-23, 02:39:04,VALID,1009.256,VALID,0.0,VALID,103.977,VALID,0.0,VALID,23.752,VALID,300.0,VALID,0.0,
2011-10-23, 02:40:04,VALID,1009.248,VALID,0.0,VALID,103.97,VALID,0.0,VALID,23.752,VALID,300.0,VALID,0.0,
2011-10-23, 02:41:04,VALID,1009.233,VALID,0.0,VALID,103.954,VALID,0.0,VALID,23.752,VALID,300.0,VALID,0.0,
2011-10-23, 02:42:04,VALID,1009.218,VALID,0.0,VALID,103.97,VALID,0.0,VALID,23.752,VALID,300.0,VALID,0.345,
2011-10-23, 02:43:04,VALID,1009.23,VALID,0.0,VALID,103.962,VALID,0.0,VALID,23.752,VALID,300.0,VALID,0.379,
2011-10-23, 02:44:04,VALID,1009.222,VALID,0.0,VALID,103.977,VALID,0.0,VALID,23.733,VALID,300.0,VALID,0.404,
2011-10-23, 02:45:04,VALID,1009.215,VALID,0.0,VALID,103.985,VALID,0.0,VALID,23.772,VALID,299.0,VALID,0.532,
2011-10-23, 02:46:04,VALID,1009.222,VALID,0.0,VALID,103.992,VALID,0.0,VALID,23.731,VALID,270.0,VALID,0.591,
2011-10-23, 02:47:04,VALID,1009.205,VALID,0.0,VALID,103.992,VALID,0.0,VALID,23.752,VALID,242.0,VALID,0.381,
2011-10-23, 02:48:04,VALID,1009.206,VALID,0.0,VALID,103.985,VALID,0.0,VALID,23.791,VALID,242.0,VALID,0.273,
2011-10-23, 02:49:04,VALID,1009.196,VALID,0.0,VALID,104.0,VALID,0.0,VALID,23.772,VALID,242.0,VALID,0.347,
2011-10-23, 02:50:04,VALID,1009.198,VALID,0.0,VALID,104.0,VALID,0.0,VALID,23.752,VALID,242.0,VALID,0.491,
2011-10-23, 02:51:04,VALID,1009.244,VALID,0.0,VALID,104.0,VALID,0.0,VALID,23.772,VALID,242.0,VALID,0.114,
2011-10-23, 02:52:04,VALID,1009.238,VALID,0.0,VALID,104.0,VALID,0.0,VALID,23.752,VALID,242.0,VALID,0.0,
2011-10-23, 02:53:04,VALID,1009.276,VALID,0.0,VALID,104.0,VALID,0.0,VALID,23.751,VALID,242.0,VALID,0.0,
2011-10-23, 02:54:04,VALID,1009.301,VALID,0.0,VALID,104.0,VALID,0.0,VALID,23.811,VALID,242.0,VALID,0.0,
2011-10-23, 02:55:04,VALID,1009.316,VALID,0.0,VALID,103.962,VALID,0.0,VALID,23.809,VALID,242.0,VALID,0.0,
2011-10-23, 02:56:04,VALID,1009.328,VALID,0.0,VALID,103.939,VALID,0.0,VALID,23.85,VALID,242.0,VALID,0.283,
2011-10-23, 02:57:04,VALID,1009.333,VALID,0.0,VALID,103.916,VALID,0.0,VALID,23.829,VALID,242.0,VALID,0.44,
2011-10-23, 02:58:04,VALID,1009.334,VALID,0.0,VALID,103.931,VALID,0.0,VALID,23.869,VALID,242.0,VALID,0.298,
2011-10-23, 02:59:04,VALID,1009.346,VALID,0.0,VALID,103.962,VALID,0.112,VALID,23.829,VALID,242.0,VALID,0.183,
2011-10-23, 03:00:04,VALID,1009.367,VALID,0.0,VALID,103.992,VALID,0.112,VALID,23.83,VALID,242.0,VALID,0.214,
2011-10-23, 03:01:04,VALID,1009.375,VALID,0.0,VALID,103.985,VALID,0.0,VALID,23.83,VALID,242.0,VALID,0.225,
2011-10-23, 03:02:04,VALID,1009.357,VALID,0.0,VALID,104.0,VALID,0.0,VALID,23.83,VALID,242.0,VALID,0.221,
2011-10-23, 03:03:04,VALID,1009.362,VALID,0.0,VALID,104.0,VALID,0.0,VALID,23.83,VALID,242.0,VALID,0.188,
2011-10-23, 03:04:04,VALID,1009.349,VALID,0.0,VALID,104.0,VALID,0.0,VALID,23.791,VALID,242.0,VALID,0.148,
2011-10-23, 03:05:04,VALID,1009.384,VALID,0.0,VALID,104.0,VALID,0.0,VALID,23.791,VALID,242.0,VALID,0.147,
2011-10-23, 03:06:04,VALID,1009.361,VALID,0.0,VALID,104.0,VALID,0.0,VALID,23.731,VALID,242.0,VALID,0.016,
2011-10-23, 03:07:04,VALID,1009.373,VALID,0.0,VALID,104.0,VALID,0.0,VALID,23.772,VALID,242.0,VALID,0.0,
2011-10-23, 03:08:04,VALID,1009.397,VALID,0.0,VALID,104.0,VALID,0.0,VALID,23.752,VALID,242.0,VALID,0.0,
2011-10-23, 03:09:04,VALID,1009.369,VALID,0.0,VALID,104.0,VALID,0.0,VALID,23.772,VALID,242.0,VALID,0.0,
2011-10-23, 03:10:04,VALID,1009.396,VALID,0.0,VALID,104.0,VALID,0.0,VALID,23.791,VALID,242.0,VALID,0.0,
2011-10-23, 03:11:04,VALID,1009.387,VALID,0.0,VALID,103.962,VALID,0.0,VALID,23.811,VALID,242.0,VALID,0.0,
2011-10-23, 03:12:04,VALID,1009.4,VALID,0.0,VALID,103.916,VALID,0.0,VALID,23.85,VALID,243.0,VALID,0.0,
2011-10-23, 03:13:04,VALID,1009.41,VALID,0.0,VALID,103.909,VALID,0.0,VALID,23.869,VALID,242.0,VALID,0.0,
2011-10-23, 03:14:04,VALID,1009.4,VALID,0.0,VALID,103.909,VALID,0.0,VALID,23.869,VALID,242.0,VALID,0.0,
2011-10-23, 03:15:04,VALID,1009.411,VALID,0.0,VALID,103.901,VALID,0.0,VALID,23.869,VALID,242.0,VALID,0.0,
2011-10-23, 03:16:04,VALID,1009.383,VALID,0.0,VALID,103.909,VALID,0.0,VALID,23.869,VALID,242.0,VALID,0.297,
2011-10-23, 03:17:04,VALID,1009.36,VALID,0.0,VALID,103.909,VALID,0.0,VALID,23.889,VALID,242.0,VALID,0.333,
2011-10-23, 03:18:04,VALID,1009.366,VALID,0.0,VALID,103.947,VALID,0.0,VALID,23.869,VALID,242.0,VALID,0.306,
2011-10-23, 03:19:04,VALID,1009.398,VALID,0.0,VALID,104.0,VALID,0.0,VALID,23.83,VALID,242.0,VALID,0.278,
2011-10-23, 03:20:04,VALID,1009.403,VALID,0.0,VALID,104.0,VALID,0.0,VALID,23.811,VALID,242.0,VALID,0.375,
2011-10-23, 03:21:04,VALID,1009.401,VALID,0.0,VALID,104.0,VALID,0.0,VALID,23.811,VALID,242.0,VALID,0.389,
2011-10-23, 03:22:04,VALID,1009.413,VALID,0.0,VALID,103.985,VALID,0.0,VALID,23.832,VALID,242.0,VALID,0.361,
2011-10-23, 03:23:04,VALID,1009.402,VALID,0.0,VALID,104.0,VALID,0.0,VALID,23.791,VALID,242.0,VALID,0.525,
2011-10-23, 03:24:04,VALID,1009.374,VALID,0.0,VALID,104.0,VALID,0.0,VALID,23.772,VALID,332.0,VALID,0.529,
2011-10-23, 03:25:04,VALID,1009.355,VALID,0.0,VALID,104.0,VALID,0.0,VALID,23.772,VALID,332.0,VALID,0.521,
2011-10-23, 03:26:04,VALID,1009.341,VALID,0.0,VALID,104.0,VALID,0.0,VALID,23.772,VALID,332.0,VALID,0.383,
2011-10-23, 03:27:04,VALID,1009.299,VALID,0.0,VALID,104.0,VALID,0.0,VALID,23.772,VALID,332.0,VALID,0.444,
2011-10-23, 03:28:05,VALID,1009.291,VALID,0.0,VALID,104.0,VALID,0.0,VALID,23.752,VALID,332.0,VALID,0.421,
2011-10-23, 03:29:05,VALID,1009.272,VALID,0.0,VALID,104.0,VALID,0.0,VALID,23.733,VALID,331.0,VALID,0.394,
2011-10-23, 03:30:05,VALID,1009.245,VALID,0.0,VALID,104.0,VALID,0.0,VALID,23.692,VALID,331.0,VALID,0.475,
2011-10-23, 03:31:05,VALID,1009.231,VALID,0.0,VALID,104.0,VALID,0.0,VALID,23.694,VALID,332.0,VALID,0.402,
2011-10-23, 03:32:05,VALID,1009.217,VALID,0.0,VALID,104.0,VALID,0.0,VALID,23.653,VALID,332.0,VALID,0.355,
2011-10-23, 03:33:05,VALID,1009.196,VALID,0.0,VALID,104.0,VALID,0.0,VALID,23.675,VALID,332.0,VALID,0.0,
2011-10-23, 03:34:05,VALID,1009.207,VALID,0.0,VALID,104.0,VALID,0.0,VALID,23.655,VALID,332.0,VALID,0.0,
2011-10-23, 03:35:05,VALID,1009.231,VALID,0.0,VALID,104.0,VALID,0.0,VALID,23.636,VALID,332.0,VALID,0.0,
2011-10-23, 03:36:05,VALID,1009.264,VALID,0.0,VALID,104.0,VALID,0.0,VALID,23.616,VALID,332.0,VALID,0.0,
2011-10-23, 03:37:05,VALID,1009.252,VALID,0.0,VALID,104.0,VALID,0.0,VALID,23.597,VALID,332.0,VALID,0.0,
2011-10-23, 03:38:05,VALID,1009.249,VALID,0.0,VALID,104.0,VALID,0.0,VALID,23.597,VALID,332.0,VALID,0.0,
2011-10-23, 03:39:04,VALID,1009.235,VALID,0.0,VALID,104.0,VALID,0.0,VALID,23.558,VALID,332.0,VALID,0.0,
2011-10-23, 03:40:05,VALID,1009.223,VALID,0.0,VALID,104.0,VALID,0.0,VALID,23.538,VALID,332.0,VALID,0.0,
2011-10-23, 03:41:05,VALID,1009.225,VALID,0.0,VALID,104.0,VALID,0.0,VALID,23.558,VALID,332.0,VALID,0.0,
2011-10-23, 03:42:05,VALID,1009.216,VALID,0.0,VALID,104.0,VALID,0.0,VALID,23.558,VALID,332.0,VALID,0.0,
2011-10-23, 03:43:05,VALID,1009.219,VALID,0.0,VALID,104.0,VALID,0.0,VALID,23.577,VALID,332.0,VALID,0.0,